TimeMDT,TemperatureF,Dew PointF,Humidity,Sea Level PressureIn,VisibilityMPH,Wind Direction,Wind SpeedMPH,Gust SpeedMPH,PrecipitationIn,Events,Conditions,WindDirDegrees,DateUTC
12:53 AM,30.0,19.9,66,30.25,10.0,Calm,Calm,-,N/A,,Clear,0,2013-10-26 06:53:00
1:53 AM,30.9,19.9,64,30.25,10.0,Calm,Calm,-,N/A,,Clear,0,2013-10-26 07:53:00
2:53 AM,26.1,18.0,71,30.27,10.0,Calm,Calm,-,N/A,,Clear,0,2013-10-26 08:53:00
3:53 AM,23.0,17.1,78,30.28,10.0,NNE,3.5,-,N/A,,Clear,30,2013-10-26 09:53:00
4:53 AM,23.0,18.0,81,30.30,10.0,Calm,Calm,-,N/A,,Clear,0,2013-10-26 10:53:00
5:53 AM,23.0,18.0,81,30.34,10.0,ENE,6.9,-,N/A,,Clear,70,2013-10-26 11:53:00
6:53 AM,25.0,18.0,75,30.39,10.0,NE,6.9,-,N/A,,Clear,50,2013-10-26 12:53:00
7:53 AM,21.0,16.0,81,30.43,10.0,NW,5.8,-,N/A,,Clear,320,2013-10-26 13:53:00
8:53 AM,30.0,21.9,72,30.42,10.0,Calm,Calm,-,N/A,,Clear,0,2013-10-26 14:53:00
9:53 AM,36.0,23.0,59,30.41,10.0,Calm,Calm,-,N/A,,Clear,0,2013-10-26 15:53:00
10:53 AM,45.0,25.0,46,30.33,10.0,Calm,Calm,-,N/A,,Clear,0,2013-10-26 16:53:00
11:53 AM,51.1,24.1,35,30.31,10.0,Calm,Calm,-,N/A,,Clear,0,2013-10-26 17:53:00
12:53 PM,52.0,21.9,31,30.32,10.0,Calm,Calm,-,N/A,,Clear,0,2013-10-26 18:53:00
1:53 PM,57.0,23.0,27,30.25,10.0,Calm,Calm,-,N/A,,Clear,0,2013-10-26 19:53:00
2:53 PM,59.0,21.0,23,30.24,10.0,ENE,4.6,-,N/A,,Clear,70,2013-10-26 20:53:00
3:53 PM,60.1,21.0,22,30.23,10.0,SSW,6.9,-,N/A,,Clear,210,2013-10-26 21:53:00
4:53 PM,59.0,21.9,24,30.23,10.0,South,6.9,-,N/A,,Clear,180,2013-10-26 22:53:00
5:53 PM,55.0,23.0,29,30.24,10.0,SSW,4.6,-,N/A,,Clear,210,2013-10-26 23:53:00
6:53 PM,50.0,23.0,35,30.24,10.0,WNW,3.5,-,N/A,,Clear,300,2013-10-27 00:53:00
7:53 PM,42.1,18.0,38,30.30,10.0,North,11.5,-,N/A,,Clear,360,2013-10-27 01:53:00
8:53 PM,37.9,19.9,48,30.27,10.0,North,11.5,-,N/A,,Clear,350,2013-10-27 02:53:00
9:53 PM,35.1,19.9,54,30.25,10.0,North,11.5,-,N/A,,Clear,350,2013-10-27 03:53:00
10:53 PM,30.9,19.9,64,30.22,10.0,NNE,9.2,-,N/A,,Clear,30,2013-10-27 04:53:00
11:53 PM,32.0,19.9,61,30.17,10.0,North,3.5,-,N/A,,Clear,350,2013-10-27 05:53:00